Voltar ao catálogo

INMARSAT 4-F1

AtivoComunicaçõesGEO
NORAD 28628·PAYLOAD·🇮🇲 IM

Lançado Mar 11, 2005 de Cape Canaveral Space Force Station

Loading…

TLE

AtualizadoSource: Space-Track

Época: Sep 14, 2026, 15:37 UTC

1 28628U 05009A   26257.65121382  .00000027  00000-0  00000-0 0  9999
2 28628   5.2928  42.8154 0002507 137.0402 226.3326  1.00273328 78576

Acompanhe INMARSAT 4-F1 em tempo real com AllMySat

Download on the App Store